sat.trackr.live / text

‹ back to catalog

SENTINEL-1D

NORAD 66315 · 2025-251A

PAYLOAD ACTIVE UNKNOWN

§ Identity

Operator
Country
ESA
Launch date
2025-11-04
Launch site
FRGUI
Launch vehicle
Mass (kg)
RCS (m²)

External: N2YO · Heavens-Above · Gunter

§ Orbital elements

Epoch: 2026-05-24T23:45:23.029632Z

Period
98.68 min
Inclination
98.1825°
Eccentricity
0.0001354
Mean motion
14.59198318 rev/d
Perigee alt
694.8 km
Apogee alt
696.7 km
Semi-major
7,073.9 km
B*
8.3705e-5
RAAN
152.6764°
Arg perigee
88.7548°
Mean anomaly
271.3807°
Rev number
2,934

§ Raw data

SENTINEL-1D1 66315U 25251A   26144.98984988  .00000349  00000+0  83705-4 0  99982 66315  98.1825 152.6764 0001354  88.7548 271.3807 14.59198318 29345

JSON: /api/v1/satellites/66315 · /tle

For live sub-satellite position, see the globe view (requires WebGL).

§ Visibility from observer

Set your observer location to see the next 7 days of passes ≥ 10°. The values pass through the URL so the page stays shareable.

No JS? Fill the form by hand. The geolocation button needs JavaScript.